Location: ?
(35.4996°N, 139.3166°E)
Time: 14:09:46
(UTC+00:00)

Cosmos 2278 Rocket - Pass Details

Date: 18 April 2024
Orbit: 839 x 846 km, 71.0° (Epoch: 18 May)

Event Time Altitude Azimuth Distance (km) Brightness Sun altitude
Rises 16:14:49 0° 348° (NNW) 3,413 5.9 -38.4°
Reaches altitude 10° 16:17:33 10° 359° (N) 2,474 5.2 -38.2°
Enters shadow 16:21:44 30° 44° (NE) 1,468 3.8 -37.7°
